Wind_Speed
52 53 52 54 54 51 50 50 50 51 51 50 51 48 46 44 43 42 40 37 36 34 33 32 34 36 35 36 35 29 28 29 29 27 25 24 23 19 9 8 9 12 8 14 11 7 7
56 55 55 57 56 54 53 53 52 51 51 51 52 53 51 50 47 45 44 42 40 39 36 37 34 34 34 32 29 29 28 28 28 25 22 22 21 18 10 10 8 9 12 11 11 9 11
53 53 54 57 59 58 57 55 54 54 53 52 52 52 52 52 52 49 48 46 45 44 42 38 38 35 35 34 32 29 28 27 26 24 21 19 18 17 14 13 9 5 12 13 8 10 11
61 63 61 60 60 62 61 59 57 56 56 55 54 53 53 51 52 53 51 48 48 46 39 39 37 36 30 34 32 32 28 28 25 23 19 18 15 14 12 12 8 7 7 9 19 8 16
64 63 63 65 65 67 63 61 60 59 57 56 56 55 54 54 52 53 52 49 50 49 44 39 40 35 33 31 30 29 28 28 24 22 18 16 13 11 9 6 8 8 10 7 15 16 17
66 65 66 66 67 67 69 67 63 62 60 58 57 56 54 53 54 53 51 51 48 48 47 42 39 37 39 32 31 29 30 27 24 21 18 14 11 8 10 10 2 11 6 16 11 16 13
65 66 67 67 68 70 68 68 67 66 63 60 59 59 57 54 52 51 50 51 47 47 46 43 41 40 43 38 32 29 30 27 26 21 17 13 12 8 10 11 7 15 14 13 10 12 17
66 66 66 67 67 68 69 68 69 68 66 63 61 59 59 58 54 53 50 52 48 48 43 43 42 41 42 39 34 32 34 29 25 22 19 14 11 10 11 11 7 8 9 9 9 16 8
71 71 71 72 72 72 72 73 73 73 70 68 64 60 58 58 56 56 52 54 49 48 44 42 44 43 41 44 35 39 35 33 28 26 20 14 12 11 10 11 7 4 6 9 6 11 2
74 75 76 76 77 77 76 77 76 76 74 73 71 67 61 58 60 56 57 55 50 51 48 43 43 44 44 45 40 36 37 35 33 25 22 16 14 14 12 12 9 6 3 2 3 3 12
78 78 78 78 79 80 80 79 79 79 78 76 75 73 67 62 60 58 59 55 54 52 51 47 46 45 46 47 42 36 30 34 28 24 25 15 15 16 16 13 10 10 7 3 3 4 4
78 79 79 78 78 77 77 77 77 75 75 75 75 73 70 65 62 61 60 60 57 55 54 49 48 45 44 46 44 42 35 33 28 30 26 22 18 17 17 16 12 12 10 6 5 6 8
76 75 74 73 70 67 65 65 65 65 67 67 67 68 67 64 61 67 64 64 60 62 53 52 49 49 41 44 42 44 40 37 34 32 22 23 19 17 17 17 15 12 10 5 10 10 8
66 65 63 60 57 54 51 49 50 51 52 54 55 57 60 61 66 70 68 68 70 54 57 59 53 51 46 44 42 46 41 41 37 33 27 24 24 20 14 17 17 17 14 10 9 13 15
57 51 46 43 43 44 45 46 45 45 45 45 44 45 54 59 68 73 74 77 66 54 58 58 57 57 39 47 44 46 43 43 35 32 30 28 23 20 22 21 21 16 21 16 22 22 19
38 39 42 44 46 47 48 48 46 46 45 47 44 42 38 59 67 72 78 81 60 58 60 61 60 55 46 43 48 44 38 40 39 36 32 32 25 27 21 22 23 25 20 21 22 19 19
40 41 42 44 45 46 47 48 48 48 46 45 46 48 38 42 56 65 81 75 59 64 64 61 61 53 46 48 46 46 33 35 37 39 37 34 32 28 30 24 21 21 24 26 17 19 15
43 45 46 48 48 47 45 48 49 47 45 46 46 45 45 44 52 65 75 67 67 68 65 62 66 52 50 49 51 47 44 33 31 35 39 34 32 32 26 24 23 18 22 22 24 22 24
51 53 53 53 52 53 50 51 51 48 48 49 49 45 43 46 45 60 70 74 76 72 67 64 67 53 47 48 52 47 45 37 32 36 40 35 40 35 26 29 25 24 23 22 23 26 27
55 56 58 59 59 60 56 52 54 55 52 54 54 49 48 46 48 41 67 78 81 73 68 65 62 53 49 52 50 44 29 36 31 35 33 37 37 35 31 22 21 22 24 26 26 29 26
63 65 66 67 66 64 61 59 53 59 59 60 58 48 41 43 39 32 53 73 80 75 70 69 65 54 49 51 48 52 40 39 38 39 38 39 38 35 31 29 23 21 23 25 26 25 28
72 72 72 71 71 69 67 66 61 57 63 67 61 48 43 42 40 42 40 60 79 76 73 70 64 55 53 49 51 47 53 48 47 42 40 41 38 36 36 35 29 30 25 25 23 22 23
73 71 72 72 71 70 69 71 71 67 71 74 61 49 47 41 42 46 38 55 72 76 75 72 63 57 52 46 50 49 40 43 39 47 49 40 41 38 40 33 31 38 23 28 22 23 23
55 48 45 44 45 48 52 61 72 75 77 71 61 54 52 46 43 38 37 44 63 78 77 70 64 59 50 45 45 41 45 40 41 40 49 47 42 38 38 38 42 33 25 22 23 23 22
43 44 43 45 44 44 46 57 66 71 76 74 67 58 54 47 41 40 35 38 51 64 78 75 65 60 56 53 51 47 44 34 41 40 47 44 41 39 40 39 35 33 28 22 23 24 23
49 49 50 51 50 43 41 55 59 60 68 70 66 57 54 48 35 37 36 35 46 64 73 77 69 59 57 56 49 46 43 39 43 40 41 46 47 38 37 39 41 32 25 22 23 21 20
55 51 47 46 44 45 40 47 56 53 61 66 63 59 54 47 43 41 40 34 33 46 68 72 70 63 57 51 49 50 47 45 43 46 29 47 44 46 41 40 37 29 26 25 32 13 27
41 51 50 49 44 46 40 46 53 49 54 58 59 57 54 47 45 46 44 35 31 37 47 66 67 67 53 53 50 51 49 47 48 46 49 42 40 42 37 40 38 30 23 27 23 29 31
34 49 49 52 48 47 45 43 54 50 51 52 60 57 49 46 44 45 38 34 34 29 33 47 62 58 53 47 49 47 49 48 49 53 44 43 37 40 41 40 37 37 32 31 29 27 30
Wind_Direction
262 264 264 264 264 262 262 262 263 264 264 265 266 264 263 262 261 266 270 271 272 273 274 280 282 289 280 280 285 290 295 300 309 311 324 335 344 351 329 307 300 321 294 254 254 254 279
262 260 261 263 263 264 264 265 265 263 262 264 263 264 265 266 266 266 268 267 269 271 275 280 280 286 281 283 283 285 291 297 303 307 321 332 340 350 313 282 285 272 314 270 258 257 265
261 263 265 266 265 264 266 266 266 265 262 261 261 262 262 263 265 264 266 269 268 269 272 274 276 280 280 278 275 283 287 295 299 303 317 327 335 345 319 277 269 284 315 338 300 269 267
265 262 262 263 265 266 266 267 266 265 263 261 260 258 259 259 260 261 262 264 269 271 269 271 273 275 275 274 280 273 279 288 296 298 311 322 329 343 332 289 272 302 332 254 301 299 279
267 266 266 265 266 265 267 266 267 266 262 263 262 259 257 258 258 259 260 259 263 267 268 270 273 272 271 271 278 269 275 281 291 292 303 317 319 331 335 313 28 307 296 306 315 298 280
267 267 267 267 266 266 267 267 267 265 264 263 263 262 260 259 257 257 259 260 259 261 263 264 268 268 271 266 267 263 268 276 282 286 296 309 305 310 296 304 287 260 273 271 287 295 287
269 268 267 267 267 267 266 266 266 266 266 264 263 262 261 259 259 257 255 256 254 256 258 258 260 263 264 266 262 257 260 264 275 279 287 294 296 295 287 276 210 244 238 249 276 259 264
273 272 272 271 270 268 267 267 266 265 265 265 262 261 261 259 255 255 252 250 249 250 252 252 254 258 260 264 258 261 255 259 267 272 272 280 283 274 281 284 261 252 260 248 253 263 258
271 270 270 270 271 270 269 268 268 267 266 265 264 261 259 259 255 253 251 250 246 245 249 249 250 251 255 260 253 261 253 255 254 257 266 266 266 265 267 275 249 255 234 248 225 257 326
273 273 274 274 273 272 270 269 268 267 266 266 265 263 259 256 252 251 249 249 247 246 246 249 243 248 250 256 251 252 257 244 241 248 256 256 256 258 255 267 238 226 240 157 143 159 249
277 276 276 276 275 275 274 273 271 269 267 264 262 261 258 254 254 248 247 247 246 246 244 245 246 243 246 250 252 249 247 230 238 245 249 257 242 255 253 255 234 208 192 195 212 223 243
276 276 276 276 276 275 275 275 274 272 270 267 263 259 257 252 248 245 244 244 243 242 239 241 244 246 245 248 249 246 236 232 231 235 238 239 244 242 245 246 239 224 214 236 250 244 247
275 275 274 274 274 273 272 271 269 268 268 266 263 259 254 248 238 236 237 239 240 236 235 237 239 244 245 246 245 239 228 231 232 237 237 238 244 234 235 246 242 226 230 252 254 236 266
271 270 269 268 267 265 264 263 261 261 260 259 257 251 249 243 231 229 231 235 235 230 234 240 241 240 242 244 243 236 221 225 223 228 232 235 235 236 232 230 239 235 236 230 272 256 252
268 266 262 260 260 261 263 264 262 260 259 259 257 255 239 229 225 225 226 228 231 231 235 238 241 244 239 242 239 233 213 222 224 227 225 230 228 239 226 219 227 241 239 226 233 243 249
257 258 259 258 257 256 257 258 258 258 257 256 257 260 250 232 227 222 224 225 225 228 232 237 237 241 239 239 237 229 216 218 218 220 219 226 219 230 225 225 229 229 241 242 243 244 252
258 257 257 256 255 256 254 252 252 253 251 251 251 253 253 246 239 230 222 218 218 223 229 232 235 235 234 237 238 222 210 221 215 214 215 219 217 229 227 228 244 237 238 235 236 242 248
263 262 264 263 260 255 253 253 251 251 250 248 247 248 249 246 244 240 228 214 212 218 226 228 232 230 230 231 235 224 205 208 214 214 215 218 222 218 235 234 236 233 265 235 235 234 257
268 266 266 265 264 259 255 249 247 247 247 247 248 248 247 244 254 241 228 214 218 215 219 226 233 228 230 229 230 221 208 203 197 209 212 212 223 222 230 225 235 233 232 228 242 243 240
274 272 269 266 263 257 254 255 248 240 241 242 244 245 245 244 246 248 228 220 218 215 214 220 230 223 225 232 223 211 206 200 199 207 208 214 225 227 234 245 253 232 232 238 237 244 254
272 271 268 265 262 257 252 249 243 239 235 236 238 243 250 248 247 261 230 223 216 214 216 219 224 220 220 229 230 218 201 202 199 203 210 215 220 223 221 222 229 243 239 239 246 252 254
273 271 268 261 257 253 247 242 236 235 232 232 234 238 242 240 241 239 239 226 221 214 215 218 222 220 217 222 232 223 217 202 203 203 205 215 221 220 225 226 226 230 235 239 240 250 257
273 272 269 264 257 251 245 238 233 227 227 228 229 229 235 235 238 238 246 222 221 217 215 219 220 217 217 218 230 231 218 213 210 211 208 210 219 218 226 230 233 235 228 240 247 252 257
269 260 256 248 239 238 241 234 221 220 222 228 228 226 232 234 228 231 237 231 222 218 219 218 216 216 215 218 226 230 232 219 209 216 208 209 216 219 227 230 232 235 230 238 244 248 258
258 253 248 244 239 240 241 223 218 212 213 218 219 220 224 230 231 232 236 238 222 221 222 222 212 214 214 217 218 224 231 223 214 216 212 211 216 224 230 228 238 235 231 239 252 255 255
261 254 244 241 240 236 233 219 214 210 207 209 212 213 218 225 223 226 230 236 226 219 222 220 216 216 214 217 216 219 224 212 204 212 221 219 218 222 229 232 235 235 232 233 246 261 248
254 243 240 236 231 220 219 212 203 203 202 206 207 210 214 217 216 218 222 226 222 220 221 222 218 213 217 214 216 219 217 212 207 207 225 225 230 227 231 238 240 239 228 234 243 253 264
247 233 230 225 216 207 208 204 190 196 199 202 200 206 210 213 214 216 217 220 218 215 217 218 218 216 216 216 218 219 222 217 213 211 216 219 223 235 233 239 242 247 237 237 254 248 254
254 233 227 211 201 193 195 192 190 191 193 197 197 199 203 209 214 217 218 229 219 214 210 214 218 214 206 206 215 219 226 223 220 216 216 218 223 231 234 243 249 248 245 239 246 255 259
Height
5765 5767 5768 5769 5770 5770 5772 5774 5775 5777 5779 5781 5782 5783 5785 5787 5789 5791 5792 5793 5794 5794 5796 5796 5796 5796 5795 5795 5794 5793 5791 5789 5787 5785 5783 5781 5777 5772 5771 5770 5768 5765 5764 5762 5762 5761 5759
5753 5753 5754 5756 5757 5759 5760 5762 5764 5766 5768 5770 5772 5774 5776 5778 5781 5783 5785 5785 5786 5787 5789 5790 5790 5789 5790 5790 5788 5787 5786 5785 5783 5782 5781 5778 5774 5770 5768 5767 5765 5764 5762 5761 5760 5759 5758
5738 5740 5741 5742 5745 5746 5747 5749 5751 5753 5756 5758 5760 5763 5766 5768 5771 5772 5775 5777 5777 5779 5782 5782 5783 5783 5784 5785 5783 5783 5782 5781 5779 5778 5777 5775 5772 5768 5766 5765 5762 5760 5760 5758 5758 5759 5758
5724 5725 5726 5729 5731 5732 5734 5737 5738 5740 5743 5746 5749 5751 5754 5757 5760 5762 5765 5766 5768 5771 5774 5775 5775 5776 5777 5778 5777 5777 5777 5777 5776 5775 5774 5772 5768 5766 5764 5762 5760 5759 5759 5760 5753 5757 5757
5710 5711 5712 5714 5716 5719 5720 5722 5724 5728 5730 5733 5736 5739 5743 5747 5748 5752 5754 5757 5758 5762 5765 5767 5769 5769 5771 5773 5773 5772 5772 5772 5772 5771 5771 5769 5766 5764 5762 5761 5758 5761 5762 5762 5760 5757 5757
5695 5695 5697 5699 5700 5702 5706 5708 5710 5713 5717 5718 5721 5725 5729 5735 5738 5742 5743 5746 5747 5752 5755 5757 5761 5763 5763 5766 5766 5765 5766 5767 5767 5767 5767 5766 5764 5762 5762 5759 5761 5765 5761 5762 5761 5755 5754
5678 5678 5680 5682 5683 5686 5689 5691 5694 5698 5702 5706 5708 5711 5716 5721 5726 5731 5734 5737 5738 5741 5745 5748 5751 5754 5752 5756 5758 5759 5761 5760 5763 5763 5763 5763 5762 5760 5760 5760 5759 5760 5759 5761 5759 5757 5753
5661 5662 5663 5665 5666 5668 5671 5673 5678 5681 5685 5690 5694 5698 5702 5708 5713 5717 5720 5724 5726 5730 5735 5737 5741 5745 5746 5746 5751 5752 5755 5756 5757 5758 5759 5759 5758 5758 5758 5757 5755 5754 5755 5757 5757 5755 5753
5645 5646 5647 5648 5649 5651 5654 5657 5660 5663 5667 5672 5678 5683 5688 5693 5700 5703 5708 5712 5714 5716 5722 5730 5731 5736 5739 5737 5743 5745 5747 5749 5751 5752 5755 5755 5755 5754 5755 5755 5752 5752 5753 5754 5753 5753 5752
5624 5625 5626 5627 5629 5632 5636 5638 5642 5646 5649 5653 5659 5666 5673 5680 5683 5691 5694 5700 5702 5705 5709 5720 5723 5727 5730 5729 5734 5737 5739 5742 5742 5747 5750 5751 5752 5751 5752 5752 5750 5751 5752 5751 5751 5751 5751
5603 5605 5606 5607 5608 5610 5613 5617 5619 5624 5629 5634 5640 5646 5655 5664 5669 5677 5681 5686 5689 5694 5698 5705 5711 5718 5719 5723 5727 5728 5732 5733 5738 5742 5744 5748 5747 5746 5747 5749 5747 5749 5750 5750 5750 5750 5753
5584 5584 5585 5586 5588 5590 5591 5593 5596 5599 5605 5611 5618 5626 5634 5646 5654 5660 5665 5671 5674 5680 5687 5694 5701 5706 5710 5713 5716 5719 5723 5728 5733 5732 5737 5740 5742 5742 5744 5744 5745 5746 5748 5749 5748 5748 5751
5563 5564 5565 5566 5568 5570 5572 5575 5578 5581 5583 5589 5594 5602 5613 5625 5638 5637 5647 5651 5656 5662 5683 5687 5691 5695 5700 5702 5707 5709 5715 5719 5723 5726 5732 5734 5736 5738 5738 5741 5742 5743 5745 5748 5748 5749 5748
5543 5544 5546 5548 5550 5553 5556 5559 5562 5565 5567 5571 5575 5581 5591 5605 5612 5618 5626 5631 5632 5665 5670 5675 5679 5685 5690 5693 5698 5700 5704 5709 5715 5720 5726 5728 5729 5732 5735 5737 5739 5739 5742 5746 5745 5747 5749
5525 5527 5530 5533 5537 5540 5543 5547 5550 5554 5557 5559 5561 5565 5573 5584 5589 5596 5599 5600 5628 5656 5661 5665 5670 5675 5681 5684 5689 5689 5692 5702 5711 5716 5720 5722 5726 5727 5728 5732 5735 5737 5736 5742 5742 5742 5744
5511 5514 5518 5521 5525 5528 5531 5534 5538 5541 5545 5548 5551 5553 5558 5564 5568 5574 5574 5583 5626 5641 5646 5650 5659 5666 5672 5675 5679 5679 5684 5695 5701 5707 5714 5717 5721 5722 5723 5726 5728 5730 5734 5734 5735 5737 5738
5499 5502 5505 5508 5512 5516 5519 5522 5525 5529 5532 5535 5537 5540 5549 5551 5553 5552 5552 5583 5617 5621 5630 5638 5647 5656 5662 5665 5670 5672 5677 5687 5693 5698 5704 5710 5714 5718 5716 5720 5723 5725 5727 5729 5734 5734 5734
5486 5488 5491 5494 5498 5502 5505 5509 5513 5517 5521 5522 5524 5528 5537 5540 5540 5542 5548 5588 5597 5602 5614 5625 5632 5645 5650 5657 5660 5664 5667 5675 5686 5692 5695 5704 5707 5710 5712 5716 5719 5723 5721 5723 5725 5729 5729
5470 5472 5474 5477 5481 5485 5490 5496 5500 5505 5507 5510 5511 5519 5524 5528 5528 5533 5554 5568 5571 5583 5599 5612 5620 5633 5639 5647 5651 5655 5660 5666 5673 5681 5687 5695 5695 5702 5706 5708 5710 5713 5717 5720 5722 5723 5721
5449 5451 5453 5457 5461 5466 5472 5479 5485 5490 5495 5496 5499 5506 5512 5516 5522 5527 5541 5546 5553 5574 5584 5596 5607 5621 5629 5635 5642 5645 5652 5657 5666 5675 5682 5685 5689 5693 5700 5705 5705 5707 5709 5711 5714 5713 5714
5428 5429 5431 5433 5438 5444 5452 5460 5467 5474 5479 5478 5483 5497 5503 5508 5515 5523 5523 5538 5547 5558 5573 5582 5593 5610 5620 5626 5632 5638 5642 5650 5656 5663 5671 5675 5678 5686 5693 5697 5701 5703 5703 5704 5705 5707 5707
5403 5402 5403 5406 5411 5418 5426 5437 5447 5457 5462 5456 5471 5488 5494 5500 5507 5510 5514 5519 5532 5551 5559 5573 5586 5600 5610 5618 5623 5629 5634 5638 5646 5655 5661 5666 5671 5679 5683 5687 5692 5694 5696 5698 5700 5702 5701
5371 5369 5370 5372 5376 5384 5395 5407 5422 5434 5438 5435 5464 5480 5483 5491 5496 5499 5509 5512 5525 5542 5549 5560 5577 5587 5599 5612 5612 5617 5625 5633 5641 5647 5651 5658 5663 5670 5674 5680 5683 5682 5691 5691 5694 5695 5696
5341 5341 5343 5347 5354 5362 5370 5378 5394 5409 5416 5433 5457 5468 5472 5479 5487 5497 5501 5505 5514 5528 5539 5548 5563 5577 5594 5602 5606 5610 5615 5626 5632 5638 5643 5648 5655 5663 5667 5671 5669 5679 5683 5686 5687 5688 5689
5321 5324 5327 5332 5338 5344 5350 5357 5372 5387 5400 5419 5441 5452 5462 5472 5482 5489 5495 5498 5502 5513 5521 5538 5555 5568 5579 5587 5594 5601 5609 5615 5627 5632 5636 5641 5649 5654 5657 5663 5670 5673 5678 5682 5681 5682 5684
5300 5303 5308 5314 5321 5329 5335 5343 5358 5372 5388 5407 5426 5442 5454 5466 5478 5482 5484 5486 5493 5504 5516 5528 5546 5557 5569 5578 5588 5592 5601 5612 5618 5624 5630 5636 5641 5647 5651 5655 5656 5668 5673 5676 5676 5676 5676
5274 5280 5288 5296 5305 5316 5324 5333 5348 5363 5380 5397 5416 5433 5447 5458 5464 5472 5474 5481 5489 5495 5509 5522 5536 5551 5560 5573 5581 5585 5593 5604 5610 5618 5624 5628 5634 5638 5644 5646 5653 5661 5665 5668 5667 5679 5666
5243 5252 5265 5278 5291 5305 5316 5326 5341 5357 5373 5388 5410 5425 5439 5450 5457 5462 5468 5476 5482 5488 5496 5515 5527 5537 5554 5566 5573 5580 5587 5597 5603 5610 5616 5623 5629 5633 5640 5640 5644 5653 5657 5660 5665 5661 5661
5223 5229 5242 5261 5280 5298 5312 5324 5338 5354 5369 5384 5402 5418 5432 5442 5450 5456 5465 5472 5480 5486 5494 5501 5527 5539 5551 5558 5566 5574 5580 5589 5596 5601 5610 5615 5621 5626 5632 5635 5639 5642 5647 5650 5653 5654 5653